Regional Weather Roundup
Issued by NWS Upton, NY

Current Version | Previous Version | Graphics & Text | Print | Product List | Glossary Off
Versions: 1 2 3 4 5 6 7 8 9 10 11 12 13 14 15 16 17 18 19 20 21 22 23 24 25 26 27

000
ASUS41 KOKX 221209
RWROKX

REGIONAL WEATHER ROUNDUP
NATIONAL WEATHER SERVICE NEW YORK NY
800 AM EDT MON MAY 22 2017

NOTE: "FAIR" INDICATES FEW OR NO CLOUDS BELOW 12,000 FEET WITH NO
SIGNIFICANT WEATHER AND/OR OBSTRUCTIONS TO VISIBILITY.

NYZ071-072-176-178-NJZ106-104-221300-
NEW YORK CITY METRO AREA

CITY           SKY/WX    TMP DP  RH WIND       PRES   REMARKS
Central Park   CLOUDY    54  52  93 CALM      30.19S
Wall St Helipt CLOUDY    57  50  77 SE8       30.19R
Bronx Bot Gard   N/A     54  50  87 NE5       30.16F
LaGuardia APRT CLOUDY    58  49  72 SE8       30.16S
Kennedy INTL   CLOUDY    56  51  84 SE9       30.18S
Breezy Point     N/A     54 N/A N/A SE12        N/A
Newark/Liberty LGT RAIN  57  50  77 SE7       30.16S
Teterboro      CLOUDY    56  50  80 SE5       30.16S
$$

NYZ177-179-078>081-221300-
LONG ISLAND NEW YORK

CITY           SKY/WX    TMP DP  RH WIND       PRES   REMARKS
Jones Beach      N/A     54 N/A N/A SE9G15      N/A
Matinecock PT    N/A     54 N/A N/A CALM        N/A
Farmingdale    CLOUDY    55  50  83 SE8       30.18S
MacArthur/ISP  CLOUDY    55  51  86 SE9       30.18F
Shirley        CLOUDY    55  52  89 SE6       30.19F
Mt Sinai Harb    N/A     52 N/A N/A SE3         N/A
Westhampton    LGT RAIN  55  49  80 SE6       30.21S
East Hampton   LGT RAIN  52  49  88 SE7       30.20S
Montauk          N/A     54  50  86 VRB3      30.23S
$$

NYZ052-065-067-221300-
HUDSON VALLEY

CITY           SKY/WX    TMP DP  RH WIND       PRES   REMARKS
White Plains   CLOUDY    52  48  86 E7        30.17R
Larchmont Harb   N/A     54 N/A N/A NE7         N/A
Croton O-T Hud   N/A     54 N/A N/A SE3         N/A
Newburgh       CLOUDY    55  48  76 SE12      30.16S
Montgomery     CLOUDY    55  46  71 S9        30.14S
Poughkeepsie   CLOUDY    55  44  66 VRB5      30.14S
Albany         CLOUDY    52  44  74 SE6       30.11F
$$

NJZ001-105-106-008-010-013-015-019>022-104-221300-
NEW JERSEY

CITY           SKY/WX    TMP DP  RH WIND       PRES   REMARKS
Newark/Liberty LGT RAIN  57  50  77 SE7       30.16S
Teterboro      CLOUDY    56  50  80 SE5       30.16S
Caldwell       CLOUDY    57  49  74 S7        30.17S
Somerville     CLOUDY    55  52  89 CALM      30.14S
Linden         CLOUDY    56  50  81 SE6       30.17R
Perth Amboy      N/A     54 N/A N/A SE9G15      N/A
Sussex         CLOUDY    55  49  80 VRB6      30.15S
Andover          N/A     53  49  86 MISG      30.14F
Trenton        LGT RAIN  54  53  97 E3        30.14S FOG
Millville      HVY RAIN  57  57 100 N5        30.12R FOG
Atlantic City  HVY RAIN  58  56  93 E5        30.13R FOG
Wrightstown    LGT RAIN  55  54  94 E8        30.12S FOG
Toms River     RAIN      55  54  96 NE7       30.16S FOG
Belmar         CLOUDY    54  52  93 E10       30.16S
$$

PAZ047>061-062-071-221300-
EASTERN PENNSYLVANIA

CITY           SKY/WX    TMP DP  RH WIND       PRES   REMARKS
Philadelphia   CLOUDY    57  55  93 E7        30.13S FOG
Allentown      CLOUDY    55  50  83 SE7       30.13F
Scranton       CLOUDY    58  48  69 SW5       30.08F
$$

CTZ002-004>006-009-010-012-RIZ004-006-007-MAZ004-011-015-221300-
SOUTHERN NEW ENGLAND
 IN CT

CITY           SKY/WX    TMP DP  RH WIND       PRES   REMARKS
Bradley INTL   CLOUDY    53  42  66 S15G21    30.18F
Hartford       CLOUDY    53  47  79 VRB7      30.19S
Danbury        CLOUDY    50  44  80 VRB6      30.19S
Wtrbury/Oxford CLOUDY    50  43  76 S8        30.20S
Bridgeport     CLOUDY    56  44  64 SE8       30.19S
Meriden        CLOUDY    51  46  83 VRB6      30.19F
New Haven      CLOUDY    53  47  79 SE6       30.19F
Chester        CLOUDY    52  48  87 SE6       30.20S
Groton         LGT RAIN  53  47  79 SE8       30.21S
Wilimantic     CLOUDY    53  49  86 S5        30.20F

 IN RI

CITY           SKY/WX    TMP DP  RH WIND       PRES   REMARKS
Providence     CLOUDY    53  48  83 S6        30.22F
Block Island   LGT RAIN  52  47  83 SE6       30.22S
Westerly       LGT RAIN  54  46  74 S6        30.22S
 IN MA

CITY           SKY/WX    TMP DP  RH WIND       PRES   REMARKS
Boston         LGT RAIN  51  46  83 S9        30.23S
Worcester      CLOUDY    46  41  81 SW6       30.18F
Westfield      LGT RAIN  52  46  80 S9        30.16F
Provincetown   LGT RAIN  53  44  71 S9        30.25R
Nantucket      CLOUDY    52  37  56 S7        30.25F
$$

ANZ330-335-338-340-345-350-353-355-221300-
COASTAL MARINE OBSERVATIONS


STATION/POSITION TIME  SKY/WX   TEMP    WIND        PRES    VSBY  WAVE
                                AIR SEA DIR/SP/G                  HT/PER
                 (UTC)          (F)     (DEG/KT/KT) (MB)    (MI)  (FT/S)
NY HARB ENTRANCE 1050            55 56  130/ 12/ 14 1021.4          2/ 6
20 S FIRE ISLAND 1150            55 54  130/ 12/ 16 1021.1          2/ 6
GREAT SOUTH BAY  1130            56 65  110/ 12/ 14   N/A
23 SSW MONTAUK P 1050            54 55              1023.1          2/ 8
15 E BARNEGAT LI 1130               56                N/A           3/ 5
HUDSON CANYON    1050            55 53  120/  8/ 10 1021.7          3/ 6
KINGS POINT      1136            54 57  180/  2/  3 1021.6
EXECUTION ROCKS  1145            55                   N/A
CENTRAL LI SOUND NOT AVBL
EASTERN LI SOUND NOT AVBL
ROBBINS REEF     1136            56     140/ 12/ 14 1021.8
$$


>>>>>>>>>>>>>>>>>>>>>>>>>>>> KEY <<<<<<<<<<<<<<<<<<<<<<<<<<<
>                                                          <
>     SKY/WX - Sky Condition/Present Weather               <
>     TMP    - Temperature in Fahrenheit                   <
>     DP     - Dew Point in Fahrenheit                     <
>     RH     - Relative Humidity in Percent                <
>     WIND   - Direction (from) and Speed in MPH           <
>     PRES   - Mean Sea Level Pressure (inches of Hg)      <
>     WCI    - Wind Chill Index                            <
>     VSB    - VISIBILITY IN MILES                         <
>     HX     - HEAT INDEX                                  <
>     TC     - TEMPERATURE IN CELSIUS                      <
>     VRB    - VARIABLE WIND DIRECTION                     <
>                                                          <
>>>>>>>>>>>>>>>>>>>>>>>>>>>> KEY <<<<<<<<<<<<<<<<<<<<<<<<<<<




USA.gov is the U.S. government's official web portal to all federal, state and local government web resources and services.